PDT,Max TemperatureF,Mean TemperatureF,Min TemperatureF,Max Dew PointF,MeanDew PointF,Min DewpointF,Max Humidity, Mean Humidity, Min Humidity, Max Sea Level PressureIn, Mean Sea Level PressureIn, Min Sea Level PressureIn, Max VisibilityMiles, Mean VisibilityMiles, Min VisibilityMiles, Max Wind SpeedMPH, Mean Wind SpeedMPH, Max Gust SpeedMPH,PrecipitationIn, CloudCover, Events, WindDirDegrees
2011-10-1,104,88,73,58,52,49,53,32,17,29.92,29.86,29.81,10,10,10,9,4,,0.00,1,,252
2011-10-2,99,86,73,61,52,48,50,32,19,29.95,29.87,29.81,10,10,10,13,4,,0.00,0,Rain,256
2011-10-3,97,84,71,64,55,46,53,36,27,29.89,29.82,29.72,10,10,8,22,6,29,0.00,2,Rain,225
2011-10-4,82,76,69,50,48,41,49,38,25,29.90,29.85,29.78,10,10,10,34,23,41,0.00,2,,260
2011-10-5,82,56,32,54,48,32,100,50,35,29.93,29.85,29.76,10,10,10,25,18,34,0.00,4,,257
2011-10-6,79,68,57,45,40,34,55,38,22,29.91,29.86,29.82,10,10,10,22,14,33,0.00,0,,262
2011-10-7,81,67,53,41,33,22,58,32,12,30.06,30.00,29.93,10,10,10,16,10,22,0.00,1,,273
2011-10-8,86,68,53,40,36,30,55,33,15,30.07,30.00,29.93,10,10,10,12,7,30,0.00,0,Rain,294
2011-10-9,86,70,55,41,37,32,44,31,17,30.00,29.93,29.86,10,10,10,10,5,,0.00,0,Rain,271
2011-10-10,90,72,55,43,36,32,47,29,13,29.94,29.88,29.81,10,10,10,10,5,,0.00,0,,243
2011-10-11,91,76,62,47,41,36,44,30,16,29.91,29.86,29.81,10,10,10,9,3,,0.00,0,Rain,278
2011-10-12,100,82,64,43,40,36,40,26,11,29.93,29.87,29.82,10,10,10,9,6,,0.00,0,,295
2011-10-13,102,82,63,47,37,29,41,24,8,29.89,29.82,29.75,10,10,10,7,5,,0.00,0,,253
2011-10-14,99,80,61,48,41,31,46,28,11,29.88,29.81,29.77,10,10,8,8,5,,0.00,2,,121
2011-10-15,98,79,61,52,44,37,50,30,16,29.89,29.83,29.78,10,10,10,10,4,,0.00,0,,281
2011-10-16,100,81,62,51,44,36,48,28,11,29.94,29.89,29.85,10,10,7,10,4,,0.00,0,,201
2011-10-17,102,83,66,48,42,36,45,26,11,30.00,29.94,29.90,10,10,10,10,6,,0.00,0,,298
2011-10-18,98,80,64,50,39,25,45,26,8,30.02,29.94,29.87,10,10,10,12,4,,0.40,0,,310
2011-10-19,97,80,63,43,37,32,36,22,10,29.89,29.83,29.75,10,10,10,10,4,,0.00,0,,239
2011-10-20,95,78,62,56,42,33,61,31,13,29.94,29.88,29.83,10,10,10,10,6,,0.00,0,,162
2011-10-21,91,76,61,66,56,51,73,54,26,30.06,30.00,29.95,10,10,10,8,4,,0.00,1,,6
2011-10-22,98,81,64,54,46,39,61,36,14,30.03,29.97,29.91,10,10,10,8,5,,0.00,0,,294
2011-10-23,98,79,61,46,40,32,56,28,11,29.98,29.92,29.86,10,9,3,9,5,,0.00,0,,286
2011-10-24,95,78,64,54,44,35,43,30,16,29.96,29.91,29.87,10,10,3,20,5,,0.00,2,,301
2011-10-25,84,75,66,55,49,43,57,41,28,29.97,29.91,29.86,10,9,4,34,18,44,0.00,3,,269
2011-10-26,84,74,63,49,34,7,54,29,7,30.03,29.94,29.88,10,10,10,23,18,31,0.00,0,,313
2011-10-27,79,66,53,25,21,14,31,20,9,30.11,30.05,29.99,10,10,10,12,7,,0.00,0,,309
2011-10-28,84,64,46,27,18,9,32,18,7,30.14,30.07,30.02,10,10,10,8,5,,0.00,1,,276
2011-10-29,88,70,53,29,24,18,35,21,8,30.09,30.02,29.97,10,10,10,8,6,,0.00,1,,284
2011-10-30,,,,,,,,,,30.09,30.02,29.98,,,,,,,0.00,,,-1
2011-10-31,90,74,59,68,37,17,71,27,11,30.01,29.95,29.87,10,10,10,7,1,,0.00,0,,260